Idaho Cnty AP, Grangeville, I, ID

5:27 PM PDT on September 24, 2017 (GMT -0700)
Idaho Cnty AP, Grangeville, I

Weather History for KGIC - March, 2014

Change the Weather History Date:

Saturday, March 22, 2014

  Actual Average (KP69) Record (KP69)
Temperature  
Mean Temperature 34 °F -  
Max Temperature 46 °F 54 °F 73 °F (2004)
Min Temperature 22 °F 33 °F 27 °F (2014)
Degree Days  
Heating Degree Days 31    
Moisture  
Dew Point 19 °F    
Average Humidity 59    
Maximum Humidity 82    
Minimum Humidity 30    
Precipitation  
Precipitation 0.00 in - - ()
Sea Level Pressure  
Sea Level Pressure 30.23 in    
Wind  
Wind Speed 3 mph (SE)    
Max Wind Speed 10 mph    
Max Gust Speed -    
Visibility 10 miles    
Events      
Averages and records for this station are not official NWS values.
T = Trace of Precipitation, MM = Missing Value Source: NWS Daily Summary

Daily Weather History Graph

Daily Weather History Graph

Search for Another Location

Airport or City:

Trip Planner

Search our weather history database for the weather conditions in past years. The results will help you decide how hot, cold, wet, or windy it might be!

Date:

Astronomy

Mar. 22, 2014 Rise Set
Actual Time 6:43 AM PDT 6:59 PM PDT
Civil Twilight 6:13 AM PDT 7:29 PM PDT
Nautical Twilight 5:38 AM PDT 8:04 PM PDT
Astronomical Twilight 5:02 AM PDT 8:41 PM PDT
Moon 12:38 AM PDT (3/22) 10:15 AM PDT (3/22)
Length of Visible Light 13h 16m
Length of Day
12h 16m
Waning Gibbous, 64% of the Moon is Illuminated
Mar 22
Waning Gibbous
Mar 23
Last Quarter
Mar 30
New
Apr 7
First Quarter
Apr 15
Full

Hourly Weather History & Observations

Time (PDT) Temp. Windchill Dew Point Humidity Pressure Visibility Wind Dir Wind Speed Gust Speed Precip Events Conditions
12:15 AM 28.2 °F 23.1 °F 20.1 °F 72% 30.23 in 10.0 mi South 4.6 mph - N/A   Clear
12:35 AM 27.3 °F 22.0 °F 19.6 °F 73% 30.23 in 10.0 mi South 4.6 mph - N/A   Clear
12:55 AM 25.7 °F - 18.9 °F 75% 30.23 in 10.0 mi Calm Calm - N/A   Clear
1:15 AM 24.8 °F - 18.1 °F 76% 30.23 in 10.0 mi Calm Calm - N/A   Clear
1:35 AM 25.0 °F 19.3 °F 18.3 °F 76% 30.23 in 10.0 mi SW 4.6 mph - N/A   Clear
1:55 AM 24.6 °F - 18.5 °F 78% 30.23 in 7.0 mi Calm Calm - N/A   Clear
2:15 AM 24.8 °F 20.5 °F 17.8 °F 75% 30.23 in 10.0 mi SSW 3.5 mph - N/A   Clear
2:35 AM 24.8 °F 17.9 °F 17.8 °F 75% 30.23 in 10.0 mi SSW 5.8 mph - N/A   Clear
2:55 AM 25.7 °F 19.0 °F 18.5 °F 74% 30.23 in 10.0 mi SSW 5.8 mph - N/A   Clear
3:15 AM 25.5 °F - 18.3 °F 74% 30.24 in 10.0 mi Calm Calm - N/A   Clear
3:35 AM 25.9 °F - 17.8 °F 71% 30.24 in 10.0 mi Calm Calm - N/A   Clear
3:55 AM 25.2 °F - 18.0 °F 74% 30.24 in 10.0 mi Calm Calm - N/A   Clear
4:15 AM 25.2 °F - 18.9 °F 77% 30.24 in 10.0 mi Calm Calm - N/A   Clear
4:35 AM 24.6 °F - 17.6 °F 75% 30.25 in 10.0 mi Calm Calm - N/A   Clear
4:55 AM 24.1 °F 17.0 °F 17.8 °F 77% 30.25 in 10.0 mi South 5.8 mph - N/A   Clear
5:15 AM 24.4 °F 20.1 °F 17.6 °F 75% 30.26 in 10.0 mi SSW 3.5 mph - N/A   Clear
5:35 AM 24.8 °F - 17.4 °F 74% 30.26 in 10.0 mi Calm Calm - N/A   Clear
5:55 AM 24.6 °F - 17.4 °F 74% 30.27 in 10.0 mi Calm Calm - N/A   Clear
6:15 AM 23.0 °F - 17.6 °F 80% 30.27 in 10.0 mi Calm Calm - N/A   Clear
6:35 AM 23.4 °F - 17.8 °F 79% 30.29 in 7.0 mi Calm Calm - N/A   Clear
6:55 AM 22.6 °F - 17.2 °F 80% 30.29 in 7.0 mi Calm Calm - N/A   Clear
7:15 AM 22.6 °F - 17.2 °F 80% 30.29 in 5.0 mi Calm Calm - N/A   Clear
7:35 AM 23.5 °F - 18.7 °F 82% 30.29 in 5.0 mi Calm Calm - N/A   Clear
7:55 AM 26.2 °F 20.7 °F 20.8 °F 80% 30.29 in 7.0 mi SSW 4.6 mph - N/A   Clear
8:15 AM 28.2 °F - 22.1 °F 78% 30.30 in 10.0 mi Calm Calm - N/A   Clear
8:35 AM 29.5 °F - 21.7 °F 73% 30.30 in 10.0 mi Calm Calm - N/A   Clear
8:55 AM 30.4 °F - 21.7 °F 70% 30.30 in 10.0 mi Calm Calm - N/A   Clear
9:15 AM 31.3 °F - 21.7 °F 68% 30.31 in 10.0 mi Calm Calm - N/A   Clear
9:35 AM 32.0 °F - 22.8 °F 69% 30.30 in 10.0 mi Calm Calm - N/A   Clear
9:55 AM 32.5 °F - 22.3 °F 66% 30.31 in 10.0 mi Calm Calm - N/A   Clear
10:15 AM 34.0 °F 31.0 °F 21.6 °F 60% 30.30 in 10.0 mi ENE 3.5 mph - N/A   Clear
10:35 AM 35.4 °F 32.6 °F 21.2 °F 56% 30.30 in 10.0 mi ENE 3.5 mph - N/A   Clear
10:55 AM 36.5 °F 32.7 °F 20.7 °F 53% 30.30 in 10.0 mi NNE 4.6 mph - N/A   Clear
11:15 AM 36.9 °F 33.1 °F 21.2 °F 53% 30.30 in 10.0 mi NNE 4.6 mph - N/A   Clear
11:35 AM 37.4 °F - 20.8 °F 51% 30.29 in 10.0 mi Calm Calm - N/A   Clear
11:55 AM 38.3 °F 35.9 °F 21.2 °F 50% 30.29 in 10.0 mi North 3.5 mph - N/A   Clear
12:15 PM 38.8 °F 36.5 °F 18.9 °F 45% 30.29 in 10.0 mi NE 3.5 mph - N/A   Clear
12:35 PM 39.9 °F 35.8 °F 17.4 °F 40% 30.29 in 10.0 mi NE 5.8 mph - N/A   Clear
12:55 PM 40.3 °F 38.2 °F 17.6 °F 40% 30.27 in 10.0 mi NE 3.5 mph - N/A   Clear
1:15 PM 40.8 °F 36.9 °F 18.0 °F 40% 30.27 in 10.0 mi ESE 5.8 mph - N/A   Clear
1:35 PM 41.5 °F 39.6 °F 17.6 °F 38% 30.26 in 10.0 mi East 3.5 mph - N/A   Clear
1:55 PM 41.9 °F 40.0 °F 17.4 °F 37% 30.25 in 10.0 mi North 3.5 mph - N/A   Clear
2:15 PM 42.3 °F 37.3 °F 16.7 °F 36% 30.24 in 10.0 mi NNE 8.1 mph - N/A   Clear
2:35 PM 43.7 °F 42.1 °F 18.7 °F 37% 30.24 in 10.0 mi West 3.5 mph - N/A   Clear
2:55 PM 44.2 °F 41.0 °F 19.0 °F 37% 30.23 in 10.0 mi West 5.8 mph - N/A   Clear
3:15 PM 45.0 °F 43.5 °F 18.3 °F 35% 30.22 in 10.0 mi South 3.5 mph - N/A   Clear
3:35 PM 45.5 °F 44.2 °F 18.3 °F 34% 30.21 in 10.0 mi SSW 3.5 mph - N/A   Clear
3:55 PM 45.5 °F 44.2 °F 17.2 °F 32% 30.20 in 10.0 mi West 3.5 mph - N/A   Clear
4:15 PM 45.7 °F 42.7 °F 16.5 °F 31% 30.20 in 10.0 mi WNW 5.8 mph - N/A   Clear
4:35 PM 46.0 °F 44.8 °F 16.0 °F 30% 30.19 in 10.0 mi South 3.5 mph - N/A   Clear
4:55 PM 45.7 °F 44.4 °F 16.5 °F 31% 30.19 in 10.0 mi NE 3.5 mph - N/A   Clear
5:15 PM 45.7 °F 44.4 °F 17.6 °F 33% 30.19 in 10.0 mi ENE 3.5 mph - N/A   Clear
5:35 PM 45.5 °F 42.5 °F 18.5 °F 34% 30.18 in 10.0 mi ENE 5.8 mph - N/A   Clear
5:55 PM 44.4 °F 39.0 °F 20.3 °F 38% 30.18 in 10.0 mi ESE 10.4 mph - N/A   Clear
6:15 PM 43.2 °F 37.4 °F 21.0 °F 41% 30.18 in 10.0 mi ESE 10.4 mph - N/A   Clear
6:35 PM 42.1 °F 36.1 °F 21.9 °F 45% 30.17 in 10.0 mi ESE 10.4 mph - N/A   Clear
6:55 PM 40.6 °F 34.8 °F 23.2 °F 50% 30.17 in 10.0 mi ESE 9.2 mph - N/A   Clear
7:15 PM 39.6 °F 33.0 °F 22.1 °F 50% 30.16 in 10.0 mi SE 10.4 mph - N/A   Clear
7:35 PM 38.3 °F 34.8 °F 22.6 °F 53% 30.16 in 7.0 mi ESE 4.6 mph - N/A   Clear
7:55 PM 38.3 °F 35.9 °F 20.7 °F 49% 30.16 in 7.0 mi ESE 3.5 mph - N/A   Clear
8:15 PM 37.0 °F - 21.6 °F 54% 30.16 in 10.0 mi Calm Calm - N/A   Clear
8:35 PM 33.4 °F - 23.0 °F 66% 30.16 in 7.0 mi Calm Calm - N/A   Clear
8:55 PM 32.5 °F - 22.3 °F 66% 30.16 in 10.0 mi Calm Calm - N/A   Clear
9:15 PM 32.4 °F 27.9 °F 21.6 °F 64% 30.16 in 10.0 mi South 4.6 mph - N/A   Clear
9:35 PM 32.9 °F - 20.8 °F 61% 30.16 in 10.0 mi Calm Calm - N/A   Clear
9:55 PM 33.3 °F - 21.2 °F 61% 30.15 in 10.0 mi Calm Calm - N/A   Clear
10:15 PM 31.6 °F 28.3 °F 21.7 °F 67% 30.15 in 7.0 mi SSW 3.5 mph - N/A   Clear
10:35 PM 31.3 °F 27.9 °F 21.2 °F 66% 30.15 in 10.0 mi West 3.5 mph - N/A   Clear
10:55 PM 31.8 °F 28.5 °F 20.7 °F 63% 30.15 in 10.0 mi SW 3.5 mph - N/A   Clear
11:15 PM 32.4 °F - 20.3 °F 61% 30.15 in 10.0 mi Calm Calm - N/A   Clear
11:35 PM 33.3 °F - 19.9 °F 58% 30.15 in 10.0 mi Calm Calm - N/A   Clear
11:55 PM 33.8 °F - 19.4 °F 56% 30.15 in 10.0 mi Calm Calm - N/A   Clear